EW9037 Weather Reports


time (UTC)temp
C
wind
direction
speed
KPH
gust
KPH
rain 1hr
cm
rain 24hr
cm
rain mn
cm
humidity
%
barometer
mb
20181216171646 6 273 6.4 8.0 0.00 0.05 0.00 94 1021.0
20181216170138 6 259 4.8 11.3 0.00 0.05 0.00 94 1021.0
20181216164652 6 295 4.8 11.3 0.00 0.05 0.00 93 1021.1
20181216163130 6 46 1.6 8.0 0.00 0.05 0.00 93 1021.1
20181216161645 6 17 1.6 6.4 0.00 0.05 0.00 92 1021.2
20181216160133 6 334 3.2 8.0 0.00 0.05 0.00 91 1021.5
20181216154608 5 300 4.8 12.9 0.00 0.08 0.00 91 1021.6
20181216153121 5 317 4.8 17.7 0.00 0.08 0.00 91 1021.4
20181216151554 5 300 4.8 9.7 0.00 0.08 0.00 91 1021.3
20181216150154 5 314 4.8 11.3 0.00 0.08 0.00 91 1021.2
20181216144547 5 293 6.4 12.9 0.00 0.18 0.00 91 1021.0
20181216143113 5 287 8.0 14.5 0.00 0.18 0.00 91 1021.0
20181216141547 5 277 6.4 14.5 0.00 0.18 0.00 92 1020.7
20181216140047 5 283 4.8 11.3 0.00 0.18 0.00 92 1020.5
20181216134530 5 316 6.4 11.3 0.00 0.28 0.00 91 1020.5
20181216133048 5 283 6.4 11.3 0.00 0.28 0.00 92 1020.2
20181216131544 5 288 4.8 8.0 0.00 0.28 0.00 92 1020.0
20181216130049 5 282 4.8 8.0 0.00 0.28 0.00 92 1019.6
20181216124602 5 323 4.8 8.0 0.00 0.66 0.00 92 1019.5
20181216123125 5 307 1.6 6.4 0.00 0.66 0.00 93 1019.4
20181216121532 5 295 6.4 9.7 0.00 0.66 0.00 93 1019.4
20181216120021 5 307 4.8 9.7 0.00 0.66 0.00 93 1018.9
20181216114541 5 305 4.8 9.7 0.00 0.94 0.00 93 1018.6
20181216113021 5 299 6.4 11.3 0.00 0.94 0.00 93 1018.4
20181216111517 5 316 3.2 9.7 0.00 0.94 0.00 93 1018.4
20181216110014 5 300 1.6 6.4 0.00 0.94 0.00 93 1018.2
20181216104510 5 329 3.2 8.0 0.00 1.04 0.00 93 1018.2
20181216103032 5 333 4.8 12.9 0.00 1.04 0.00 93 1018.2
20181216101543 5 298 4.8 16.1 0.00 1.04 0.00 93 1018.1
20181216100006 5 315 4.8 8.0 0.00 1.04 0.00 93 1017.7
20181216094517 5 25 4.8 11.3 0.00 1.09 0.00 93 1017.7
20181216093004 5 330 9.7 19.3 0.00 1.09 0.00 93 1017.4
20181216090002 5 27 6.4 17.7 0.00 1.09 0.00 93 1017.4
20181216084612 5 332 6.4 16.1 0.00 1.30 0.00 93 1017.5
20181216083206 5 297 9.7 16.1 0.00 1.30 0.00 93 1017.5
20181216081655 5 333 8.0 17.7 0.00 1.30 0.00 93 1017.3
20181216080242 5 349 6.4 14.5 0.00 1.30 0.00 92 1017.1
20181216074615 5 342 6.4 19.3 0.00 2.11 0.00 92 1016.7
20181216073109 5 347 6.4 12.9 0.00 2.11 0.00 91 1016.5
20181216071617 5 293 4.8 14.5 0.00 2.11 0.00 91 1016.2
20181216070128 5 318 4.8 9.7 0.00 2.11 0.00 91 1016.0
20181216064648 5 356 3.2 8.0 0.00 2.92 0.00 91 1016.0
20181216063128 5 319 4.8 9.7 0.00 2.92 0.00 92 1016.0
20181216061645 5 359 3.2 11.3 0.00 2.92 0.00 92 1015.8
20181216060105 5 303 3.2 9.7 0.00 2.92 0.00 92 1015.3
20181216054552 5 315 3.2 8.0 0.00 3.12 0.00 92 1015.1
20181216053031 6 291 4.8 8.0 0.00 3.12 0.00 92 1015.1
20181216051538 6 309 1.6 4.8 0.00 3.12 0.00 92 1014.6
20181216050129 6 33 4.8 9.7 0.00 3.12 0.00 92 1014.2
20181216044519 6 26 1.6 6.4 0.00 3.12 3.12 92 1014.5
20181216043021 6 20 4.8 9.7 0.00 3.12 3.12 92 1014.6
20181216041604 6 21 6.4 9.7 0.00 3.12 3.12 91 1014.6
20181216040019 6 33 8.0 14.5 0.00 3.12 3.12 90 1014.5
20181216034516 7 26 4.8 9.7 0.00 3.12 3.12 90 1014.3
20181216033017 7 331 0.0 3.2 0.00 3.12 3.12 89 1014.1
20181216031514 7 349 0.0 0.0 0.03 3.12 3.12 89 1014.0
20181216030006 7 352 0.0 4.8 0.03 3.12 3.12 89 1014.0
20181216024523 7 321 1.6 8.0 0.03 3.12 3.12 89 1013.9
20181216023024 7 295 3.2 8.0 0.05 3.12 3.12 89 1013.9
20181216021505 7 307 3.2 8.0 0.03 3.10 3.10 89 1014.0
20181216020008 7 309 1.6 8.0 0.03 3.10 3.10 90 1014.2
20181216013157 7 288 6.4 12.9 0.00 3.07 3.07 90 1014.1
20181216011651 7 41 4.8 11.3 0.00 3.07 3.07 90 1014.0
20181216010145 7 322 6.4 11.3 0.00 3.07 3.07 90 1013.9
20181216004642 8 340 4.8 11.3 0.00 3.07 3.07 89 1013.7
20181216003211 8 320 3.2 9.7 0.00 3.07 3.07 89 1013.5
20181216001631 8 320 1.6 4.8 0.00 3.07 3.07 89 1013.4
20181216000112 8 298 4.8 8.0 0.00 3.07 3.07 89 1013.2
20181215234623 8 293 3.2 4.8 0.00 3.07 3.07 89 1013.1
20181215233143 8 283 1.6 3.2 0.00 3.07 3.07 89 1012.8
20181215231718 8 302 3.2 6.4 0.00 3.07 3.07 89 1012.9
20181215230202 8 314 1.6 6.4 0.00 3.07 3.07 89 1012.7
20181215224718 8 359 3.2 6.4 0.00 3.10 3.07 90 1012.7
20181215223142 8 1 3.2 4.8 0.00 3.10 3.07 90 1012.8
20181215221641 8 32 3.2 9.7 0.00 3.10 3.07 90 1012.9
20181215220140 8 40 6.4 9.7 0.00 3.10 3.07 90 1013.0
20181215214650 8 29 4.8 8.0 0.00 3.43 3.07 90 1012.8
20181215213134 8 57 4.8 8.0 0.00 3.43 3.07 90 1012.4
20181215211701 8 37 3.2 8.0 0.00 3.43 3.07 91 1012.3
20181215210142 8 42 3.2 8.0 0.00 3.43 3.07 91 1012.2
20181215204659 8 43 1.6 11.3 0.00 3.73 3.07 92 1011.9
20181215203048 9 63 8.0 11.3 0.00 3.73 3.07 91 1011.7
20181215201611 9 39 6.4 12.9 0.00 3.73 3.07 91 1011.6
20181215200142 9 51 4.8 11.3 0.00 3.73 3.07 91 1011.3
20181215194638 9 37 6.4 9.7 0.00 3.99 3.07 90 1011.2
20181215193103 8 40 6.4 11.3 0.00 3.99 3.07 91 1011.4
20181215191551 8 40 8.0 12.9 0.00 3.99 3.07 91 1011.5
20181215190116 8 43 8.0 14.5 0.00 3.99 3.07 92 1011.8
20181215184606 8 60 8.0 12.9 0.00 4.27 3.07 92 1011.9
20181215183224 8 43 8.0 14.5 0.00 4.27 3.07 92 1012.0
20181215181619 9 37 8.0 12.9 0.00 4.27 3.07 92 1012.0
20181215180046 9 51 9.7 11.3 0.00 4.27 3.07 92 1012.2
20181215174550 9 58 12.9 17.7 0.00 4.60 3.07 92 1012.4
20181215173114 9 34 8.0 14.5 0.00 4.60 3.07 91 1012.6